Main page
METAR-TAF:

METAR-TAF

Airports :

Tri-City Airport

Parsons, Kansas, United States

latitude: 37-19-40N, longitude: 095-30-15W, elevation: 899 ft

Current weather observation

The report was made 41 minutes ago, at 02:52 UTC
Wind 7 mph from the South/Southeast
Temperature 82°F
Humidity 58%
Pressure 29.96 in. Hg
Visibility: 10 miles
Clear sky

METAR: KPPF 190252Z AUTO 16006KT 10SM CLR 28/19 A2996 RMK AO2 SLP134 T02780194 53030

Time: 22:33 (03:33 UTC)


TAF: missing

Weather observations and forecasts of more than 4000 airports (METAR and TAF reports).

The available stations are represented by yellow and red dots on the map.

Hover mouse over dot to see the name of the station.

Then click to see weather observations and forecasts.

To change the map : click on the green buttons with a black cross to zoom in, on the green button with a dash to zoom out, or on the green arrows for adjacent maps.


METAR-TAF: